RADUGA 15 [-]

Last updated on Jan. 23, 2021, 7:21 a.m. UTC

1 15057U 84063A   21021.99378448  .00000142  00000-0  00000-0 0  9994
2 15057  12.3991 327.9263 0003482 105.4528  77.4364  1.00211680121328
UTC
Height (km)
Latitude
Longitude
Inclination
Orbital Period
UTC large
Height (km)
Speed (km/s)
/
Latitude / Longitude
Inclination (degrees)
Orbital Period (minutes)
Azimuth
Elevation
Range (km)
Doppler Factor
iOS Compass Heading
iOS Angle

Next 30 passes for location: Hong Kong

Rise time Rise Azimuth (degrees) Set time Set Azimuth (degrees) Duration Max altitude (degrees)

No matching passes for this satellites